Location: Engelmannsreuth
(49.8125°N, 11.6497°E)
Time: 08:45:08
(UTC+00:00)

STARLINK-1195 - Pass Details

Date: 17 February 2020
Orbit: 374 x 385 km, 53.0° (Epoch: 01 April)

Event Time Altitude Azimuth Distance (km) Brightness Sun altitude
Exits shadow 04:59:44 25° 303° (WNW) 828 4.0 -13.7°
Maximum altitude 05:01:12 44° 2° (N) 543 3.6 -13.5°
Drops below altitude 10° 05:04:13 10° 77° (ENE) 1,400 7.0 -13.0°
Sets 05:06:19 0° 84° (E) 2,249 8.6 -12.7°
